OBJECT D, 51827

Orbit data source: Space-Track

You're viewing an Uncataloged Satellite

Recently launched and/or uncataloged satellites may have evolving metadata. Metadata may include but not limited to: Owner, Maufacturer, Bus, Motor, and Mission.

OBJECT D, 51827 is a Chinese satellite in SSO that was launched on Sun, 27 Feb 2022 UTC via a CHANG ZHENG 8 launch vehicle from the Wenchang Satellite Launch Center (WSC). Unknown objects in Earth's orbit typically refer to objects detected orbiting the Earth but have not yet been identified or cataloged. These objects could be anything from previously untracked satellites, spent rocket stages, debris from satellite collisions, or even natural meteoroids temporarily captured by Earth's gravity.

Loading next visibility...
Identifier
51827, 2022-019D
Orbit
SSO
Country
Flag of CNCN / PRC
Related business
None
Manufacturer
Unknown
Mission
Non-operational Civil Imaging
Bus & Motor
Unknown
Mass
Unknown
Launch date (UTC)
2022-02-27 (4 years ago)
Launch vehicle
CHANG ZHENG 8
Launch site
Wenchang Satellite Launch Center (WSC)
Object type
Unknown
Shape & HBR
Box + 2 Pan, 1.0 m
Radar Cross Section
1.775 m², Medium (>0.1 m² and < 1m²)

Expand to show TLE details & history
Last TLE update: 1 day ago

TLE from 1 day ago
0 OBJECT D
1 51827U 22019D   26172.51744111  .00072186  00000-0  55786-3 0  9997
2 51827  97.3657 265.2413 0004665 134.7650 225.3994 15.71680661240384
Epoch: 2026-06-21T12:25Z
TLE epoch observation values (Epoch: 2026-06-21T12:25:06.911Z)
Latitude
0.00001°
Longitude
169.24593°
Altitude
359.461 km
Speed
7.692 km/s
True Right ascension
17h 40m 57s
True Declination
0° 00' 00"
Sunlit
Object was in full shadow at epoch
Visualization orbit readout
Latitude
Unknown
Longitude
Unknown
Altitude
Unknown
Speed
Unknown
Apparent Right ascension
Unknown
Apparent Declination
Unknown
Sunlit
N/A
Visualization observer readout
Local Sidereal Time
00:56:28
Azimuth
Unknown
Elevation
Unknown
Doppler factor
Unknown
Orbital elements
Apogee altitude
354.128 km
Perigee altitude
347.85 km
Semi-major axis
6,729.126 km
Eccentricity
0.00047
Inclination
97.3657°
RAAN
265.2413°
Arg. of periapsis
134.765°
True anomaly
225.36135°
Mean anomaly
225.3994°
Eccentric anomaly
225.38038°
Mean motion
3.93192 °/min
Orbital period
91.56 mins
BSTAR
0.00055786
Loading maneuver chart data...
Computing Atmospheric mass density...
Loading historical data...
Loading historical data...
Loading historical data...
Loading historical data...
Loading historical data...
Loading historical data...
Loading historical data...

Documentation

Showing up to 5 results
|